Regional Weather Roundup
Issued by NWS

Home | Current Version | Previous Version | Graphics & Text | Print | Product List | Glossary On
Versions: 1 2 3 4 5 6 7 8 9 10 11 12 13 14 15 16 17 18 19 20 21 22 23 24 25 26 27 28 29 30 31 32 33 34 35 36 37 38 39 40 41 42 43 44 45 46 47 48 49 50
000
ASUS43 KDTX 192210
RWRMI
MICHIGAN HOURLY REGIONAL WEATHER ROUNDUP
NATIONAL WEATHER SERVICE DETROIT/PONTIAC MI
600 PM EDT SAT MAY 19 2018

NOTE: "FAIR" INDICATES FEW OR NO CLOUDS BELOW 12,000 FEET WITH NO
SIGNIFICANT WEATHER AND/OR OBSTRUCTION TO VISIBILITY.

MIZ047>049-052>055-059>063-066>070-074>076-081>083-192300-
SOUTHEAST LOWER MICHIGAN

CITY           SKY/WX    TMP DP  RH WIND       PRES   REMARKS
ADRIAN         CLOUDY    73  66  78 W14G23    29.84R
ALMA           CLOUDY    63  62  97 NW9       29.85S
ANN ARBOR      LGT RAIN  72  69  90 SW7       29.81S
BAD AXE        RAIN      61  60  97 NW8       29.82S
CARO           HVY RAIN  63  61  94 NW9       29.82R
DETROIT CITY   LGT RAIN  69  66  90 SW6       29.80F
DETROIT        HVY RAIN  74  67  78 CALM      29.81S
FLINT          CLOUDY    70  65  84 NW16      29.82S
GROSSE ILE     FAIR      71  68  88 S3        29.80F
HILLSDALE      CLOUDY    68  61  77 W15G23    29.86R
HOWELL         CLOUDY    70  64  81 W14       29.83R

CITY           SKY/WX    TMP DP  RH WIND       PRES   REMARKS
JACKSON        CLOUDY    68  64  87 W12       29.84S
LAMBERTVILLE   RAIN      74  66  76 W12G22    29.83R
LANSING        CLOUDY    64  63  96 W10       29.85S FOG
LAPEER         PTSUNNY   74  62  66 W8        29.80F
MASON          CLOUDY    67  63  86 W8        29.85S
MONROE         PTSUNNY   75  66  75 W20G25    29.82R
MT. CLEMENS    LGT RAIN  71  71 100 SW14      29.82R
PONTIAC        TSTM      69  65  86 SW10      29.80R VSB 1
PORT HOPE        N/A     51  51 100 NW8       29.81R
PORT HURON     FAIR      73  63  68 S9        29.81R
TRI CITIES     CLOUDY    64  61  90 NW9       29.84R
MIDLAND        CLOUDY    62  60  95 W5        29.83S
TROY           LGT RAIN  69  66  92 SW6       29.83F
SAGINAW HB     DRIZZLE   63  61  94 NW10      29.83R
$$
MIZ043>046-050>051-056>058-064>065-071>073-077>080-192300-
SOUTHWEST LOWER MICHIGAN

CITY           SKY/WX    TMP DP  RH WIND       PRES   REMARKS
BATTLE CREEK   CLOUDY    64  59  83 W9        29.88S
BENTON HARBOR  CLOUDY    58  52  80 NW6       29.91R
BIG RAPIDS     CLOUDY    59  56  89 NW6       29.86R
COLDWATER      CLOUDY    65  61  86 W10       29.88R
FREMONT        CLOUDY    63  57  82 W6        29.86R
HOLLAND        FAIR      58  52  80 W12       29.89R
GRAND RAPIDS   PTSUNNY   63  57  81 VRB7      29.86S
IONIA          CLOUDY    64  60  84 W8        29.85R
KALAMAZOO      CLOUDY    63  58  83 W7        29.88S
LUDINGTON      CLOUDY    53  52  94 N10       29.89R
MARSHALL       CLOUDY    65  63  94 W7        29.86S
MOUNT PLEASANT CLOUDY    63  62  97 W3        29.83F
MUSKEGON       PTSUNNY   59  52  77 NW9       29.88R
SOUTH HAVEN    PTSUNNY   57  51  81 NW7       29.92R
$$
MIZ016>042-192300-
NORTHERN LOWER MICHIGAN

CITY           SKY/WX    TMP DP  RH WIND       PRES   REMARKS
ALPENA         RAIN      53  53 100 NW6       29.83F FOG
BEAVER ISLAND  CLOUDY    53  50  90 E5        29.88R
BELLAIRE       CLOUDY    53  50  90 W5        29.86S
CADILLAC       CLOUDY    57  56  94 NW6       29.84S
CHARLEVOIX     CLOUDY    45  45 100 NW3       29.90R
FRANKFORT      CLOUDY    52  49  90 N3        29.89R
GAYLORD        CLOUDY    54  54 100 VRB5      29.84S
GRAYLING       CLOUDY    56  55  95 NW6       29.83S
HARBOR SPRINGS CLOUDY    45  45  99 CALM      29.86R FOG
HOUGHTON LAKE  CLOUDY    59  56  89 NW9       29.83F
MANISTEE       CLOUDY    50  47  89 W9        29.89R
OSCODA         CLOUDY    61  60  95 N3        29.82S
PELLSTON       CLOUDY    50  48  93 N6        29.87R
ROGERS CITY    FOG       46  46  97 NW5       29.86S VSB 1/2
TRAVERSE CITY  CLOUDY    56  52  86 NW9       29.85R
$$
MIZ007>008-015-192300-
EASTERN UPPER MICHIGAN

CITY           SKY/WX    TMP DP  RH WIND       PRES   REMARKS
KINROSS        CLOUDY    52  50  93 W6        29.86S
MACKINAC ISLAN CLOUDY    51  51 100 N6        29.86S
NEWBERRY       CLOUDY    57  56  97 N3        29.88R
S. S. MARIE    CLOUDY    53  51  93 SW5       29.85S
MUNISING         N/A     41  38  89 NW17G25   29.97R
$$
MIZ004>006-011>014-085-192300-
CENTRAL UPPER MICHIGAN

CITY           SKY/WX    TMP DP  RH WIND       PRES   REMARKS
MANISTIQUE     CLOUDY    55  51  86 N15G24    29.89R
ESCANABA       CLOUDY    56  43  61 N10G18    29.92R
SAWYER-GWINN   CLOUDY    48  36  61 N14       29.98R
$$
MIZ001>003-009>011-084-192300-
WESTERN UPPER MICHIGAN

CITY           SKY/WX    TMP DP  RH WIND       PRES   REMARKS
IRON MOUNTAIN  CLOUDY    61  42  49 NW15G25   29.92R
HOUGHTON       CLOUDY    43  37  79 N20G29    30.06R
COPPER HARBOR    N/A     40  37  89 N18       30.04R WCI  31
IRONWOOD       CLOUDY    44  37  76 NE9G21    30.12R
$$

ABBREVIATIONS USED IN REMARKS
   TC - TEMPERATURE IN CELSIUS
  WCI - WIND CHILL INDEX
   HX - HEAT INDEX
  VSB - VISIBILITY





USA.gov is the U.S. government's official web portal to all federal, state and local government web resources and services.